Location: Bucharest
(44.4268°N, 26.1025°E)
Time: 01:44:54
(UTC+03:00)

O/OREOS (USA 219) - Pass Details

Date: 10 July 2022
Orbit: 621 x 646 km, 72.0° (Epoch: 22 May)

Event Time Altitude Azimuth Distance (km) Brightness Sun altitude
Rises 00:27:44 0° 329° (NNW) 2,967 ? -22.2°
Reaches altitude 10° 00:30:07 10° 323° (NW) 2,053 ? -22.3°
Maximum altitude 00:34:27 41° 253° (WSW) 935 ? -22.5°
Enters shadow 00:34:54 40° 237° (WSW) 954 ? -22.5°
